SQ4LOL-15 Weather Reports


time (UTC)temp
C
wind
direction
speed
KPH
gust
KPH
rain 1hr
cm
rain 24hr
cm
rain mn
cm
humidity
%
barometer
mb
20260506142830 -17 0.0 0.0 0.00 0.00 0.00 10 1006.3
20260506141821 -17 0.0 0.0 0.00 0.00 0.00 10 1006.3
20260506140811 -17 0.0 0.0 0.00 0.00 0.00 10 1006.2
20260506135801 -17 0.0 0.0 0.00 0.00 0.00 10 1006.1
20260506134752 -17 0.0 0.0 0.00 0.00 0.00 10 1006.2
20260506133742 -17 0.0 0.0 0.00 0.00 0.00 10 1006.2
20260506132732 -17 0.0 0.0 0.00 0.00 0.00 10 1006.2
20260506131723 -17 0.0 0.0 0.00 0.00 0.00 95 1006.3
20260506130714 -17 0.0 0.0 0.00 0.00 0.00 89 1006.2
20260506125705 -17 0.0 0.0 0.00 0.00 0.00 90 1006.3
20260506124656 -17 0.0 0.0 0.00 0.00 0.00 92 1006.1
20260506123647 -17 0.0 0.0 0.00 0.00 0.00 96 1006.2
20260506122638 -17 0.0 0.0 0.00 0.00 0.00 99 1006.2
20260506121629 -17 0.0 0.0 0.00 0.00 0.00 97 1006.1
20260506120620 -17 0.0 0.0 0.00 0.00 0.00 93 1006.3
20260506115611 -17 0.0 0.0 0.00 0.00 0.00 94 1006.4
20260506114602 -17 0.0 0.0 0.00 0.00 0.00 91 1006.5
20260506113553 -17 0.0 0.0 0.00 0.00 0.00 86 1006.6
20260506112544 -17 0.0 0.0 0.00 0.00 0.00 92 1007.0
20260506111535 -17 0.0 0.0 0.00 0.00 0.00 84 1006.9
20260506110526 -17 0.0 0.0 0.00 0.00 0.00 93 1007.0
20260506105517 -17 0.0 0.0 0.00 0.00 0.00 10 1007.0
20260506104508 -17 0.0 0.0 0.00 0.00 0.00 10 1007.1
20260506103458 -17 0.0 0.0 0.00 0.00 0.00 10 1007.2
20260506102448 -17 0.0 0.0 0.00 0.00 0.00 10 1007.3
20260506101438 -17 0.0 0.0 0.00 0.00 0.00 10 1007.4
20260506100428 -17 0.0 0.0 0.00 0.00 0.00 10 1007.5
20260506095418 -17 0.0 0.0 0.00 0.00 0.00 10 1007.5
20260506094404 -17 0.0 0.0 0.00 0.00 0.00 10 1007.6
20260506093353 -17 0.0 0.0 0.00 0.00 0.00 10 1007.6
20260506092341 -17 0.0 0.0 0.00 0.00 0.00 10 1007.7
20260506091323 -17 0.0 0.0 0.00 0.00 0.00 10 1007.9
20260506090311 -17 0.0 0.0 0.00 0.00 0.00 10 1008.0
20260506085258 -17 0.0 0.0 0.00 0.00 0.00 10 1008.0
20260506084245 -17 0.0 0.0 0.00 0.00 0.00 10 1008.0
20260506083231 -17 0.0 0.0 0.00 0.00 0.00 10 1008.0
20260506082217 -17 0.0 0.0 0.00 0.00 0.00 10 1008.1
20260506081205 -17 0.0 0.0 0.00 0.00 0.00 10 1008.1
20260506080145 -17 0.0 0.0 0.00 0.00 0.00 10 1008.3
20260506073050 -17 0.0 0.0 0.00 0.00 0.00 10 1008.7
20260506072028 -17 0.0 0.0 0.00 0.00 0.00 10 1008.8
20260506071003 -17 0.0 0.0 0.00 0.00 0.00 10 1008.9
20260506061834 -17 0.0 0.0 0.00 0.00 0.00 10 1009.2
20260506060731 -17 0.0 0.0 0.00 0.00 0.00 10 1009.3
20260506050719 -17 0.0 0.0 0.00 0.00 0.00 10 1009.5
20260506044606 -17 0.0 0.0 0.00 0.00 0.00 10 1009.5
20260506043604 -17 0.0 0.0 0.00 0.00 0.00 10 1009.5
20260506042602 -17 0.0 0.0 0.00 0.00 0.00 10 1009.5
20260506041600 -17 0.0 0.0 0.00 0.00 0.00 10 1009.4
20260506040558 -17 0.0 0.0 0.00 0.00 0.00 10 1009.2
20260506035556 -17 0.0 0.0 0.00 0.00 0.00 10 1009.3
20260506034554 -17 0.0 0.0 0.00 0.00 0.00 10 1009.3
20260506033552 -17 0.0 0.0 0.00 0.00 0.00 10 1009.2
20260506032550 -17 0.0 0.0 0.00 0.00 0.00 10 1009.2
20260506031548 -17 0.0 0.0 0.00 0.00 0.00 10 1009.2
20260506030546 -17 0.0 0.0 0.00 0.00 0.00 10 1009.3
20260506025544 -17 0.0 0.0 0.00 0.00 0.00 10 1009.3
20260506024542 -17 0.0 0.0 0.00 0.00 0.00 10 1009.3
20260506023540 -17 0.0 0.0 0.00 0.00 0.00 10 1009.4
20260506022538 -17 0.0 0.0 0.00 0.00 0.00 10 1009.4
20260506021536 -17 0.0 0.0 0.00 0.00 0.00 10 1009.2
20260506020534 -17 0.0 0.0 0.00 0.00 0.00 10 1009.2
20260506015532 -17 0.0 0.0 0.00 0.00 0.00 10 1009.0
20260506014530 -17 0.0 0.0 0.00 0.00 0.00 10 1009.0
20260506013528 -17 0.0 0.0 0.00 0.00 0.00 10 1009.0
20260506012526 -17 0.0 0.0 0.00 0.00 0.00 10 1008.9
20260506011524 -17 0.0 0.0 0.00 0.00 0.00 10 1008.9
20260506010522 -17 0.0 0.0 0.00 0.00 0.00 10 1008.9
20260506005520 -17 0.0 0.0 0.00 0.00 0.00 10 1008.8
20260506004518 -17 0.0 0.0 0.00 0.00 0.00 10 1008.8
20260506003516 -17 0.0 0.0 0.00 0.00 0.00 10 1008.7
20260506002359 -17 0.0 0.0 0.00 0.00 0.00 10 1008.8
20260506001357 -17 0.0 0.0 0.00 0.00 0.00 10 1008.8
20260506000355 -17 0.0 0.0 0.00 0.00 0.00 10 1008.7
20260505235353 -17 0.0 0.0 0.00 0.00 0.00 10 1008.8
20260505234130 -17 0.0 0.0 0.00 0.00 0.00 10 1008.7
20260505233128 -17 0.0 0.0 0.00 0.00 0.00 10 1008.9
20260505232126 -17 0.0 0.0 0.00 0.00 0.00 10 1008.9
20260505231042 -17 0.0 0.0 0.00 0.00 0.00 10 1008.9
20260505230003 -17 0.0 0.0 0.00 0.00 0.00 10 1008.9
20260505225001 -17 0.0 0.0 0.00 0.00 0.00 10 1009.1
20260505223925 -17 0.0 0.0 0.00 0.00 0.00 10 1009.0
20260505222850 -17 0.0 0.0 0.00 0.00 0.00 10 1008.9
20260505221817 -17 0.0 0.0 0.00 0.00 0.00 10 1009.0
20260505220746 -17 0.0 0.0 0.00 0.00 0.00 10 1009.1
20260505215744 -17 0.0 0.0 0.00 0.00 0.00 10 1009.0
20260505214715 -17 0.0 0.0 0.00 0.00 0.00 10 1009.0
20260505213643 -17 0.0 0.0 0.00 0.00 0.00 10 1009.1
20260505212617 -17 0.0 0.0 0.00 0.00 0.00 10 1009.1
20260505211554 -17 0.0 0.0 0.00 0.00 0.00 10 1009.2
20260505210528 -17 0.0 0.0 0.00 0.00 0.00 10 1009.1
20260505205501 -17 0.0 0.0 0.00 0.00 0.00 10 1008.9
20260505204440 -17 0.0 0.0 0.00 0.00 0.00 10 1008.8
20260505203417 -17 0.0 0.0 0.00 0.00 0.00 10 1008.8
20260505202355 -17 0.0 0.0 0.00 0.00 0.00 10 1008.9
20260505201333 -17 0.0 0.0 0.00 0.00 0.00 10 1008.9
20260505200310 -17 0.0 0.0 0.00 0.00 0.00 10 1008.8
20260505195249 -17 0.0 0.0 0.00 0.00 0.00 10 1008.8
20260505194208 -17 0.0 0.0 0.00 0.00 0.00 10 1008.9
20260505193148 -17 0.0 0.0 0.00 0.00 0.00 10 1008.8
20260505192130 -17 0.0 0.0 0.00 0.00 0.00 10 1008.8
20260505191112 -17 0.0 0.0 0.00 0.00 0.00 10 1008.8
20260505190054 -17 0.0 0.0 0.00 0.00 0.00 10 1008.9
20260505185037 -17 0.0 0.0 0.00 0.00 0.00 10 1008.8
20260505184022 -17 0.0 0.0 0.00 0.00 0.00 10 1008.8
20260505183007 -17 0.0 0.0 0.00 0.00 0.00 10 1008.7
20260505181952 -17 0.0 0.0 0.00 0.00 0.00 10 1008.7
20260505180938 -17 0.0 0.0 0.00 0.00 0.00 10 1008.7
20260505175925 -17 0.0 0.0 0.00 0.00 0.00 10 1008.7
20260505174911 -17 0.0 0.0 0.00 0.00 0.00 10 1008.7
20260505173858 -17 0.0 0.0 0.00 0.00 0.00 10 1008.5
20260505172845 -17 0.0 0.0 0.00 0.00 0.00 10 1008.6
20260505171832 -17 0.0 0.0 0.00 0.00 0.00 10 1008.6
20260505170820 -17 0.0 0.0 0.00 0.00 0.00 10 1008.6
20260505165808 -17 0.0 0.0 0.00 0.00 0.00 10 1008.6
20260505164756 -17 0.0 0.0 0.00 0.00 0.00 10 1008.6
20260505163745 -17 0.0 0.0 0.00 0.00 0.00 10 1008.6
20260505162734 -17 0.0 0.0 0.00 0.00 0.00 10 1008.4
20260505161723 -17 0.0 0.0 0.00 0.00 0.00 10 1008.5
20260505160712 -17 0.0 0.0 0.00 0.00 0.00 10 1008.5
20260505152624 -17 0.0 0.0 0.00 0.00 0.00 96 1008.6
20260505151614 -17 0.0 0.0 0.00 0.00 0.00 93 1008.6
20260505150604 -17 0.0 0.0 0.00 0.00 0.00 91 1008.6